Showing default

NAHUEL I2 (ANIK C2), 14133

Orbit data source: Space-Track

NAHUEL I2 (ANIK C2), 14133 is a payload satellite owned by Telesat (AR) in GEO that was launched on Sat, 18 Jun 1983 UTC via an SPACE SHUTTLE launch vehicle from the Air Force Eastern Test Range (AFETR). Payload-class satellites include a variety of spacecraft equipped with specific instruments for various scientific and technological missions. These include communications satellites like Starlink; space stations such as the ISS; scientific satellites like the Hubble; Earth observation satellites from companies like Planet Labs, Umbra, and HawkEye 360; GPS; miniature CubeSats for education and research; and military/defense satellites.

Not visible in the next 10 days
Identifier
14133, 1983-059B
Orbit
GEO
Country
Flag of ARAR / ARGN
Related business
Manufacturer
Hughes
Mission
Non-operational spacecraft
Bus & Motor
HS-376, TE-M-700-5
Mass
1,118 kg wet, 444 kg dry
Launch date (UTC)
1983-06-18 (43 years ago)
Launch vehicle
SPACE SHUTTLE
Launch site
Air Force Eastern Test Range (AFETR)
Object type
Payload
Rocket body
Debris
Shape & HBR
Unknown
Radar Cross Section
Large (>1 m²)

Expand to show TLE details & history
Last TLE update: 1 day ago

TLE from 1 day ago
0 NAHUEL I2 (ANIK C2)
1 14133U 83059B   26066.03698745 -.00000279  00000-0  00000-0 0  9998
2 14133  13.0070 336.9297 0034888 116.5804 243.7752  0.99126583 45136
Epoch: 2026-03-07T00:53Z
TLE epoch observation values (Epoch: 2026-03-07T00:53:15.715Z)
Latitude
0.00001°
Longitude
158.86941°
Altitude
36,176.156 km
Speed
3.058 km/s
True Right ascension
22h 27m 47s
True Declination
0° 00' 00"
Sunlit
Object was in daylight at epoch
Visualization orbit readout
Latitude
Unknown
Longitude
Unknown
Altitude
Unknown
Speed
Unknown
Apparent Right ascension
Unknown
Apparent Declination
Unknown
Sunlit
N/A
Visualization observer readout
Local Sidereal Time
04:37:12
Azimuth
Unknown
Elevation
Unknown
Doppler factor
Unknown
Orbital elements
Apogee altitude
36,259.946 km
Perigee altitude
35,963.469 km
Semi-major axis
42,489.844 km
Eccentricity
0.00349
Inclination
13.007°
RAAN
336.9297°
Arg. of periapsis
116.5804°
True anomaly
243.41726°
Mean anomaly
243.7752°
Eccentric anomaly
243.59616°
Mean motion
0.24781 °/min
Orbital period
1,452.74 mins
BSTAR
0
Loading maneuver chart data...
Computing Atmospheric mass density...
Loading historical data...
Loading historical data...
Loading historical data...
Loading historical data...
Loading historical data...
Loading historical data...
Loading historical data...

Documentation

Showing up to 5 results
|